Eau Claire, WI

9:30 PM CDT on September 29, 2016 (GMT -0500)
Chippewa Valley Regional

Weather History for KEAU - September, 2011

Change the Weather History Date:

Wednesday, September 21, 2011

  Actual Average Record
Temperature  
Mean Temperature 54 °F 58 °F  
Max Temperature 59 °F 69 °F 89 °F (1941)
Min Temperature 49 °F 46 °F 29 °F (1999)
Degree Days  
Heating Degree Days 11 8  
Month to date heating degree days 135 102  
Since 1 July heating degree days 139 141  
Cooling Degree Days 0 1  
Month to date cooling degree days 50 42  
Year to date cooling degree days 637 569  
Growing Degree Days 4 (Base 50)    
Moisture  
Dew Point 50 °F    
Average Humidity 79    
Maximum Humidity 100    
Minimum Humidity 57    
Precipitation  
Precipitation 0.17 in 0.12 in 4.94 in (2016)
Month to date precipitation 0.70 2.62  
Year to date precipitation 28.21 24.74  
Snow  
Snow 0.00 in 0.00 in 0.00 in ()
Month to date snowfall 0.0 0.0  
Since 1 July snowfall 0.0 0.0  
Since 1 September snowfall 0.0 0.0  
Snow Depth 0.00 in    
Sea Level Pressure  
Sea Level Pressure 29.81 in    
Wind  
Wind Speed 12 mph (WSW)    
Max Wind Speed 21 mph    
Max Gust Speed 28 mph    
Visibility 8 miles    
Events Rain    
T = Trace of Precipitation, MM = Missing Value Source: NWS Daily Summary

Daily Weather History Graph

Daily Weather History Graph

Search for Another Location

Airport or City:

Trip Planner

Search our weather history database for the weather conditions in past years. The results will help you decide how hot, cold, wet, or windy it might be!

Date:

Astronomy

Sep. 21, 2011 Rise Set
Actual Time 6:51 AM CDT 7:05 PM CDT
Civil Twilight 6:22 AM CDT 7:35 PM CDT
Nautical Twilight 5:47 AM CDT 8:09 PM CDT
Astronomical Twilight 5:12 AM CDT 8:44 PM CDT
Moon No Moon Rise 3:30 PM CDT (9/21)
Length of Visible Light 13h 12m
Length of Day
12h 14m
Last Quarter, 38% of the Moon is Illuminated
Sep 21
Last Quarter
Sep 27
New
Oct 3
First Quarter
Oct 11
Full
Oct 19
Last Quarter

Hourly Weather History & Observations

Time (CDT) Temp. Dew Point Humidity Pressure Visibility Wind Dir Wind Speed Gust Speed Precip Events Conditions
12:56 AM 59.0 °F 44.1 °F 58% 29.71 in 10.0 mi SSW 13.8 mph - N/A   Overcast
1:56 AM 57.9 °F 44.1 °F 60% 29.70 in 10.0 mi SW 12.7 mph - N/A   Overcast
2:56 AM 55.9 °F 45.0 °F 67% 29.70 in 10.0 mi SSW 17.3 mph 23.0 mph N/A   Overcast
3:25 AM 55.4 °F 44.6 °F 67% 29.70 in 10.0 mi SW 15.0 mph 23.0 mph N/A   Overcast
3:56 AM 55.4 °F 46.4 °F 72% 29.69 in 10.0 mi WSW 19.6 mph 27.6 mph N/A   Overcast
4:56 AM 55.0 °F 48.0 °F 77% 29.69 in 10.0 mi SW 16.1 mph 20.7 mph N/A   Overcast
5:56 AM 54.0 °F 48.9 °F 83% 29.69 in 10.0 mi SSW 10.4 mph - N/A   Overcast
7:52 AM 53.6 °F 50.0 °F 88% 29.69 in 2.0 mi SW 13.8 mph 24.2 mph 0.00 in Rain Light Rain
7:56 AM 53.1 °F 50.0 °F 89% 29.70 in 2.0 mi SW 10.4 mph 19.6 mph 0.00 in Rain Light Rain
8:11 AM 51.8 °F 51.8 °F 100% 29.70 in 4.0 mi SW 11.5 mph 19.6 mph 0.01 in Rain Light Rain
8:26 AM 51.8 °F 51.8 °F 100% 29.70 in 3.0 mi SW 10.4 mph - 0.02 in Rain Light Rain
8:34 AM 51.8 °F 51.8 °F 100% 29.70 in 3.0 mi SW 11.5 mph 19.6 mph 0.02 in Rain Light Rain
8:56 AM 52.0 °F 51.1 °F 97% 29.70 in 4.0 mi SW 12.7 mph - 0.03 in Rain Light Rain
9:05 AM 51.8 °F 51.8 °F 100% 29.71 in 2.5 mi SW 12.7 mph 20.7 mph 0.01 in Rain Light Rain
9:07 AM 51.8 °F 51.8 °F 100% 29.71 in 4.0 mi SW 12.7 mph 20.7 mph 0.01 in Rain Light Rain
9:22 AM 53.6 °F 50.0 °F 88% 29.72 in 8.0 mi West 17.3 mph 23.0 mph 0.01 in Rain Light Rain
9:56 AM 54.0 °F 51.1 °F 90% 29.73 in 10.0 mi West 11.5 mph - 0.01 in   Overcast
10:38 AM 53.6 °F 50.0 °F 88% 29.75 in 10.0 mi WSW 13.8 mph 23.0 mph N/A   Overcast
10:56 AM 54.0 °F 50.0 °F 86% 29.75 in 10.0 mi West 15.0 mph 20.7 mph N/A   Overcast
11:23 AM 53.6 °F 50.0 °F 88% 29.76 in 10.0 mi WSW 11.5 mph - N/A   Overcast
11:56 AM 54.0 °F 48.9 °F 83% 29.77 in 10.0 mi West 16.1 mph 25.3 mph N/A   Overcast
12:40 PM 55.4 °F 50.0 °F 82% 29.79 in 10.0 mi West 15.0 mph 27.6 mph N/A   Overcast
12:56 PM 55.0 °F 50.0 °F 83% 29.80 in 10.0 mi West 16.1 mph 21.9 mph 0.00 in Rain Light Rain
1:56 PM 57.0 °F 50.0 °F 77% 29.81 in 10.0 mi West 13.8 mph 23.0 mph 0.00 in Rain Light Rain
2:03 PM 57.2 °F 48.2 °F 72% 29.80 in 10.0 mi West 17.3 mph 25.3 mph 0.00 in Rain Light Rain
2:29 PM 55.4 °F 51.8 °F 88% 29.81 in 7.0 mi West 13.8 mph 21.9 mph 0.00 in Rain Light Rain
2:41 PM 57.2 °F 51.8 °F 82% 29.81 in 10.0 mi WSW 13.8 mph 26.5 mph 0.00 in   Overcast
2:56 PM 57.2 °F 51.8 °F 82% 29.81 in 10.0 mi West 13.8 mph 21.9 mph N/A   Overcast
3:13 PM 55.4 °F 51.8 °F 88% 29.82 in 2.0 mi West 11.5 mph - 0.03 in Rain Heavy Rain
3:21 PM 55.4 °F 53.6 °F 94% 29.82 in 1.2 mi West 12.7 mph - 0.09 in Rain Heavy Rain
3:30 PM 55.4 °F 53.6 °F 94% 29.83 in 3.0 mi West 15.0 mph - 0.10 in Rain Light Rain
3:40 PM 55.4 °F 53.6 °F 94% 29.83 in 4.0 mi West 13.8 mph - 0.11 in Rain Light Rain
3:56 PM 55.0 °F 54.0 °F 96% 29.84 in 5.0 mi West 12.7 mph 20.7 mph 0.11 in Rain Light Rain
4:56 PM 55.0 °F 53.1 °F 93% 29.87 in 5.0 mi West 13.8 mph - 0.01 in Rain Light Rain
5:05 PM 55.4 °F 53.6 °F 94% 29.87 in 9.0 mi West 11.5 mph - 0.00 in   Overcast
5:20 PM 53.6 °F 51.8 °F 94% 29.87 in 7.0 mi West 13.8 mph - N/A Rain Light Rain
5:46 PM 53.6 °F 51.8 °F 94% 29.89 in 3.0 mi West 15.0 mph - 0.01 in Rain Light Rain
5:53 PM 53.6 °F 51.8 °F 94% 29.89 in 7.0 mi West 12.7 mph 20.7 mph 0.01 in Rain Light Rain
5:56 PM 54.0 °F 52.0 °F 93% 29.90 in 10.0 mi West 12.7 mph - 0.01 in   Overcast
6:48 PM 53.6 °F 51.8 °F 94% 29.90 in 10.0 mi West 9.2 mph - N/A   Overcast
6:56 PM 54.0 °F 51.1 °F 90% 29.91 in 10.0 mi West 10.4 mph - N/A   Overcast
7:04 PM 53.6 °F 51.8 °F 94% 29.91 in 10.0 mi West 9.2 mph - N/A   Overcast
7:46 PM 53.6 °F 50.0 °F 88% 29.93 in 10.0 mi West 10.4 mph - N/A   Overcast
7:56 PM 53.1 °F 50.0 °F 89% 29.94 in 10.0 mi West 11.5 mph - N/A   Overcast
8:56 PM 52.0 °F 48.9 °F 89% 29.96 in 10.0 mi West 10.4 mph - N/A   Overcast
9:56 PM 52.0 °F 48.0 °F 86% 29.97 in 10.0 mi WNW 9.2 mph - N/A   Overcast
10:08 PM 51.8 °F 48.2 °F 88% 29.97 in 10.0 mi NW 9.2 mph - N/A   Overcast
10:56 PM 50.0 °F 46.9 °F 89% 29.99 in 10.0 mi NW 8.1 mph - 0.00 in   Overcast
11:56 PM 48.9 °F 46.0 °F 90% 30.01 in 10.0 mi NW 3.5 mph - N/A   Overcast